Вернуться в каталог

SL-16 DEB

АктивенLEO
NORAD 22500·DEBRIS·🇷🇺 Russia

Запущен Dec 25, 1992 с Baikonur Cosmodrome

Loading…

Ближайшие Пролёты (ближайшие 24 часа)

TLE

СвежийSource: Space-Track

Эпоха: Sep 14, 2026, 06:00 UTC

1 22500U 92093GK  26257.25054799  .00000615  00000-0  25697-3 0  9999
2 22500  70.8469 198.6330 0060725 351.6027   8.4079 14.29197490743120

Отслеживайте SL-16 DEB в реальном времени с AllMySat

Download on the App Store